IZ0QWM-13 Scandriglia IT current weather conditions

sailwx.info

Wind from 270 at 0 knots gusting 0

Air temperature 17.8° C
Dewpoint 8.9° C

Last reported at 2017-Nov-23 12:03 UTC.
Time now 2017-Nov-23 12:55 UTC

Location: N 42°10' E 012°47'.
View on Google Maps.

See reports from other nearby stations

  
Tides and Currents Weather Stations Pressure Air Temp Water Temp Dewpoint Dewpoint Depression Visibility Wind Speed Wind Dir Waves Ship Positions
date/time (UTC)wind fromknots sea level pressurealtimeterstation pressurevisibilityair tempwater tempwave heightnotes
2017-Nov-23 12:03 270 0 gusting 0 17.8
2017-Nov-23 11:53 270 0 gusting 0 17.8
2017-Nov-23 11:43 270 0 gusting 0 17.8
2017-Nov-23 11:33 180 0 gusting 0 17.8
2017-Nov-23 11:23 180 0 gusting 0 17.8
2017-Nov-23 11:13 170 0 gusting 0 17.8
2017-Nov-23 11:03 320 0 gusting 0 17.2
2017-Nov-23 10:53 320 0 gusting 0 17.2
2017-Nov-23 10:43 330 0 gusting 0 16.1
2017-Nov-23 10:33 330 0 gusting 0 16.1
2017-Nov-23 10:23 270 0 gusting 0 13.9
2017-Nov-23 10:13 270 0 gusting 0 13.9
2017-Nov-23 10:03 270 0 gusting 0 12.8
2017-Nov-23 09:53 270 0 gusting 0 12.8
2017-Nov-23 09:43 270 0 gusting 0 12.8
2017-Nov-23 09:33 270 0 gusting 0 11.1
2017-Nov-23 09:23 270 0 gusting 0 11.1
2017-Nov-23 09:13 270 0 gusting 0 8.9
2017-Nov-23 09:03 230 0 gusting 0 8.9
2017-Nov-23 08:53 230 0 gusting 0 8.9
2017-Nov-23 08:43 230 0 gusting 0 8.9
2017-Nov-23 08:33 230 0 gusting 0 7.2
2017-Nov-23 08:23 230 0 gusting 0 7.2
2017-Nov-23 08:13 230 0 gusting 0 7.2
2017-Nov-23 08:03 200 0 gusting 0 6.1
2017-Nov-23 07:43 210 0 gusting 0 6.1
2017-Nov-23 07:33 210 0 gusting 0 6.1
2017-Nov-23 07:23 180 0 gusting 0 6.1
2017-Nov-23 07:13 180 0 gusting 0 6.1
2017-Nov-23 07:03 6.1
2017-Nov-23 06:53 6.1
2017-Nov-23 06:43 6.1
2017-Nov-23 06:33 200 0 gusting 0 6.1
2017-Nov-23 06:23 200 0 gusting 0 6.1
2017-Nov-23 06:13 200 0 gusting 0 6.1
2017-Nov-23 06:03 6.1
2017-Nov-23 05:53 6.1
2017-Nov-23 05:43 230 0 gusting 0 6.1
2017-Nov-23 05:33 230 0 gusting 0 6.1
2017-Nov-23 05:23 210 0 gusting 0 6.1
2017-Nov-23 05:13 210 0 gusting 0 6.1
2017-Nov-23 05:03 270 0 gusting 0 6.1
2017-Nov-23 04:53 270 0 gusting 0 6.1
2017-Nov-23 04:43 240 0 gusting 0 6.1
2017-Nov-23 04:33 240 0 gusting 0 6.1
2017-Nov-23 04:23 230 0 gusting 0 7.2
2017-Nov-23 04:13 230 0 gusting 0 7.2
2017-Nov-23 04:03 200 0 gusting 0 7.2
2017-Nov-23 03:53 200 0 gusting 0 7.2
2017-Nov-23 03:43 230 0 gusting 0 7.2
2017-Nov-23 03:33 230 0 gusting 0 7.2
2017-Nov-23 03:23 200 0 gusting 0 7.2
2017-Nov-23 03:13 200 0 gusting 0 7.2
2017-Nov-23 03:03 190 0 gusting 0 7.2
2017-Nov-23 02:53 190 0 gusting 0 7.2
2017-Nov-23 02:43 220 0 gusting 0 7.2
2017-Nov-23 02:33 220 0 gusting 0 7.2
2017-Nov-23 02:23 7.8
2017-Nov-23 02:13 7.8
2017-Nov-23 02:03 270 0 gusting 0 7.8
2017-Nov-23 01:53 270 0 gusting 0 7.8
2017-Nov-23 01:43 240 0 gusting 0 7.8
2017-Nov-23 01:33 240 0 gusting 0 7.8
2017-Nov-23 01:23 270 0 gusting 0 7.8
2017-Nov-23 01:13 270 0 gusting 0 7.8
2017-Nov-23 01:03 270 0 gusting 0 8.9
2017-Nov-23 00:53 270 0 gusting 0 8.9
2017-Nov-23 00:43 270 0 gusting 0 8.9
2017-Nov-23 00:33 270 0 gusting 0 8.9
2017-Nov-23 00:23 270 0 gusting 0 8.9
2017-Nov-23 00:13 270 0 gusting 0 8.9
2017-Nov-23 00:03 230 0 gusting 0 10.0
2017-Nov-22 23:53 230 0 gusting 0 10.0
2017-Nov-22 23:43 10.0
2017-Nov-22 23:33 10.0
2017-Nov-22 23:23 10.0
2017-Nov-22 23:13 11.1
2017-Nov-22 23:03 11.1
2017-Nov-22 22:53 11.1
2017-Nov-22 22:43 230 0 gusting 0 11.1
2017-Nov-22 22:33 230 0 gusting 0 11.1
2017-Nov-22 22:23 230 0 gusting 0 11.1
2017-Nov-22 22:13 230 0 gusting 0 11.1
2017-Nov-22 22:03 230 0 gusting 0 12.2
2017-Nov-22 21:53 230 0 gusting 0 12.2
2017-Nov-22 21:43 220 0 gusting 0 12.2
2017-Nov-22 21:33 220 0 gusting 0 12.2
2017-Nov-22 21:23 200 0 gusting 0 12.2
2017-Nov-22 21:13 200 0 gusting 0 12.2
2017-Nov-22 21:03 12.2
2017-Nov-22 20:53 12.2
2017-Nov-22 20:43 12.2
2017-Nov-22 20:33 12.2
2017-Nov-22 20:23 270 0 gusting 0 12.2
2017-Nov-22 20:13 270 0 gusting 0 12.2
2017-Nov-22 20:03 270 0 gusting 0 12.2
2017-Nov-22 19:53 270 0 gusting 0 12.2
2017-Nov-22 19:43 12.2
2017-Nov-22 19:33 12.2
2017-Nov-22 19:23 12.2
2017-Nov-22 19:13 12.2
2017-Nov-22 19:03 210 0 gusting 0 12.8
2017-Nov-22 18:53 210 0 gusting 0 12.8
2017-Nov-22 18:43 12.8
2017-Nov-22 18:33 12.8
2017-Nov-22 18:23 12.8
2017-Nov-22 18:13 12.8
2017-Nov-22 18:03 270 0 gusting 0 12.8
2017-Nov-22 17:53 270 0 gusting 0 12.8
2017-Nov-22 17:43 270 0 gusting 0 12.8
2017-Nov-22 17:33 200 0 gusting 0 13.9
2017-Nov-22 17:23 230 0 gusting 0 13.9
2017-Nov-22 17:13 240 0 gusting 0 13.9
2017-Nov-22 17:03 240 0 gusting 0 13.9
2017-Nov-22 16:53 240 0 gusting 0 13.9
2017-Nov-22 16:43 170 0 gusting 0 13.9
2017-Nov-22 16:33 170 0 gusting 0 13.9
2017-Nov-22 16:13 200 0 gusting 0 13.9
2017-Nov-22 16:03 190 0 gusting 0 13.9
2017-Nov-22 15:53 190 0 gusting 0 13.9
2017-Nov-22 15:43 200 0 gusting 0 15.0
2017-Nov-22 15:33 200 0 gusting 0 15.0
2017-Nov-22 15:23 220 0 gusting 0 15.0
2017-Nov-22 15:13 220 0 gusting 0 15.0
2017-Nov-22 15:03 180 0 gusting 0 16.1
2017-Nov-22 14:53 180 0 gusting 0 16.1
2017-Nov-22 14:43 270 0 gusting 0 17.2
2017-Nov-22 14:33 270 0 gusting 0 17.2
2017-Nov-22 14:23 220 0 gusting 0 17.2
2017-Nov-22 14:13 220 0 gusting 0 17.2
2017-Nov-22 14:03 270 0 gusting 0 18.9
2017-Nov-22 13:53 270 0 gusting 0 18.9
2017-Nov-22 13:43 270 0 gusting 0 20.0
2017-Nov-22 13:33 270 0 gusting 0 20.0
2017-Nov-22 13:23 270 0 gusting 0 18.9
2017-Nov-22 13:13 270 0 gusting 0 18.9
2017-Nov-22 13:03 300 0 gusting 0 18.9
2017-Nov-22 12:53 300 0 gusting 0 18.9
2017-Nov-22 12:43 300 0 gusting 0 18.9
2017-Nov-22 12:33 270 0 gusting 0 18.9
2017-Nov-22 12:23 270 0 gusting 0 18.9
2017-Nov-22 12:13 210 0 gusting 0 18.9
2017-Nov-22 12:03 240 0 gusting 0 18.9
2017-Nov-22 11:53 240 0 gusting 0 18.9
2017-Nov-22 11:43 240 0 gusting 0 18.9
2017-Nov-22 11:33 320 0 gusting 0 18.9
2017-Nov-22 11:23 320 0 gusting 0 18.9
2017-Nov-22 11:13 320 0 gusting 0 17.8
2017-Nov-22 11:03 320 0 gusting 0 17.8
2017-Nov-22 10:53 320 0 gusting 0 17.8
2017-Nov-22 10:43 190 0 gusting 0 17.2
2017-Nov-22 10:33 190 0 gusting 0 17.2
2017-Nov-22 10:23 270 0 gusting 0 16.1
2017-Nov-22 10:13 270 0 gusting 0 16.1
2017-Nov-22 10:03 13.9
2017-Nov-22 09:53 13.9
2017-Nov-22 09:43 13.9
2017-Nov-22 09:33 230 0 gusting 0 12.8
2017-Nov-22 09:23 200 0 gusting 0 11.1
2017-Nov-22 09:13 200 0 gusting 0 11.1
2017-Nov-22 09:03 270 0 gusting 0 11.1
2017-Nov-22 08:53 270 0 gusting 0 11.1
2017-Nov-22 08:43 270 0 gusting 0 11.1
2017-Nov-22 08:23 200 0 gusting 0 10.0
2017-Nov-22 08:13 200 0 gusting 0 10.0
2017-Nov-22 08:03 10.0
2017-Nov-22 07:53 10.0
2017-Nov-22 07:43 10.0
2017-Nov-22 07:33 10.0
2017-Nov-22 07:23 8.9
2017-Nov-22 07:13 8.9
2017-Nov-22 07:03 210 0 gusting 0 10.0
2017-Nov-22 06:53 210 0 gusting 0 10.0
2017-Nov-22 06:43 10.0
2017-Nov-22 06:33 10.0
2017-Nov-22 06:23 8.9
2017-Nov-22 06:13 8.9
2017-Nov-22 06:03 230 0 gusting 0 10.0
2017-Nov-22 05:53 230 0 gusting 0 10.0
2017-Nov-22 05:43 210 0 gusting 0 10.0
2017-Nov-22 05:33 210 0 gusting 0 10.0
2017-Nov-22 05:23 270 0 gusting 0 8.9
2017-Nov-22 05:13 270 0 gusting 0 8.9
2017-Nov-22 05:03 270 0 gusting 0 8.9
2017-Nov-22 04:53 270 0 gusting 0 8.9
2017-Nov-22 04:43 230 0 gusting 0 8.9
2017-Nov-22 04:33 230 0 gusting 0 8.9
2017-Nov-22 04:23 270 0 gusting 0 8.9
2017-Nov-22 04:13 270 0 gusting 0 8.9
2017-Nov-22 04:03 240 0 gusting 0 8.9
2017-Nov-22 03:53 240 0 gusting 0 8.9
2017-Nov-22 03:43 200 0 gusting 0 8.9
2017-Nov-22 03:33 200 0 gusting 0 8.9
2017-Nov-22 03:23 190 0 gusting 0 8.9
2017-Nov-22 03:13 190 0 gusting 0 8.9
2017-Nov-22 03:03 7.8
2017-Nov-22 02:53 7.8
2017-Nov-22 02:43 270 0 gusting 0 7.8
2017-Nov-22 02:33 270 0 gusting 0 7.8
2017-Nov-22 02:23 230 0 gusting 0 7.8
2017-Nov-22 02:13 230 0 gusting 0 7.8
2017-Nov-22 02:03 270 0 gusting 0 7.8
2017-Nov-22 01:53 270 0 gusting 0 7.8
2017-Nov-22 01:43 240 0 gusting 0 7.8
2017-Nov-22 01:33 240 0 gusting 0 7.8
2017-Nov-22 01:23 160 0 gusting 0 7.8
2017-Nov-22 01:13 160 0 gusting 0 7.8
2017-Nov-22 01:03 170 0 gusting 0 7.8
2017-Nov-22 00:53 170 0 gusting 0 7.8
2017-Nov-22 00:43 7.8
2017-Nov-22 00:33 7.8
2017-Nov-22 00:23 190 0 gusting 0 7.8
2017-Nov-21 23:23 190 0 gusting 0 7.8
2017-Nov-21 23:13 170 0 gusting 0 7.8
2017-Nov-21 23:03 190 0 gusting 0 7.8
2017-Nov-21 22:53 190 0 gusting 0 7.8
2017-Nov-21 22:43 190 0 gusting 0 7.8
2017-Nov-21 22:33 180 0 gusting 0 7.8
2017-Nov-21 22:23 180 0 gusting 0 7.8
2017-Nov-21 22:13 200 0 gusting 0 7.8
2017-Nov-21 22:03 210 0 gusting 0 7.8
2017-Nov-21 21:53 210 0 gusting 0 7.8
2017-Nov-21 21:43 7.2
2017-Nov-21 21:33 7.2
2017-Nov-21 21:23 230 0 gusting 0 7.2
2017-Nov-21 21:13 230 0 gusting 0 7.2
2017-Nov-21 21:03 200 0 gusting 0 7.2
2017-Nov-21 20:53 200 0 gusting 0 7.2
2017-Nov-21 20:43 270 0 gusting 0 7.2
2017-Nov-21 20:33 270 0 gusting 0 7.2
2017-Nov-21 20:23 270 0 gusting 0 7.2
2017-Nov-21 20:13 270 0 gusting 0 7.2
2017-Nov-21 20:03 270 0 gusting 0 7.8
2017-Nov-21 19:53 270 0 gusting 0 7.8
2017-Nov-21 19:43 7.8
2017-Nov-21 19:33 7.8
2017-Nov-21 19:23 240 0 gusting 0 7.8
2017-Nov-21 19:13 240 0 gusting 0 7.8
2017-Nov-21 19:03 7.8
2017-Nov-21 18:53 7.8
2017-Nov-21 18:43 200 0 gusting 0 8.9
2017-Nov-21 18:33 200 0 gusting 0 8.9
2017-Nov-21 18:23 230 0 gusting 0 8.9
2017-Nov-21 18:13 230 0 gusting 0 8.9
2017-Nov-21 18:03 230 0 gusting 0 10.0
2017-Nov-21 17:53 230 0 gusting 0 10.0
2017-Nov-21 17:43 10.0
2017-Nov-21 17:33 10.0
2017-Nov-21 17:23 230 0 gusting 0 11.1
2017-Nov-21 17:13 230 0 gusting 0 11.1
2017-Nov-21 17:03 270 0 gusting 0 11.1
2017-Nov-21 16:53 270 0 gusting 0 11.1
2017-Nov-21 16:43 12.2
2017-Nov-21 16:33 12.2
2017-Nov-21 16:23 270 0 gusting 0 12.2
2017-Nov-21 16:13 270 0 gusting 0 12.2
2017-Nov-21 16:03 12.8
2017-Nov-21 15:53 12.8
2017-Nov-21 15:43 270 0 gusting 0 12.8
2017-Nov-21 15:33 270 0 gusting 0 12.8
2017-Nov-21 15:23 270 0 gusting 0 13.9
2017-Nov-21 15:13 270 0 gusting 0 13.9
2017-Nov-21 15:03 270 0 gusting 0 15.0
2017-Nov-21 14:53 270 0 gusting 0 15.0
2017-Nov-21 14:43 270 0 gusting 0 17.2
2017-Nov-21 14:33 270 0 gusting 0 17.2
2017-Nov-21 14:23 170 0 gusting 0 17.8
2017-Nov-21 14:13 170 0 gusting 0 17.8
2017-Nov-21 14:03 200 0 gusting 0 17.8
2017-Nov-21 13:53 200 0 gusting 0 17.8
2017-Nov-21 13:43 200 0 gusting 0 17.8
2017-Nov-21 13:33 200 0 gusting 0 17.8
2017-Nov-21 13:23 270 0 gusting 0 17.2
2017-Nov-21 13:13 270 0 gusting 0 17.2
2017-Nov-21 13:03 270 0 gusting 0 16.1
2017-Nov-21 12:53 270 0 gusting 0 16.1
2017-Nov-21 12:43 15.0
2017-Nov-21 12:33 15.0
2017-Nov-21 12:23 15.0
2017-Nov-21 12:13 270 0 gusting 0 15.0
2017-Nov-21 12:03 240 0 gusting 0 13.9